Content
SEND FEEDBACK

Daily
Averages
Monthly
Summary
United States of America

MALDEN, MISSOURI


Home > North America > United States > Missouri
Elevation: 295 feet     Latitude: 36 36N     Longitude: 089 59W

WEATHER
 
SELECT A DAY
Number of Records: 210,862;   Date Range: 1/1/95 - 10/20/14
 
SHARE

PRINT THIS DATA

[ ← Previous Day ]
WEATHER ALMANAC - OCTOBER 25, 2013
[ Next Day → ]
[ °C ]   °F
Weather ElementAverageHighLow
Temperature41.6 °F54 °F (2:53 pm)30 °F (6:53 am)
Dewpoint28.8 °F33.1 °F (9:53 am)23 °F (4:53 pm)
Humidity64.8 %86 % (10:53 pm)31 % (3:53 pm)
Barometer30.45 in30.56 in (9:53 am)30.30 in (11:53 pm)
Wind Speed1.6 mph6.9 mph (10:53 am)
Weather ElementAverage
Visibility9.8 mi
Wind DirectionNNE (20.4 °)

Weather ElementTotal
Precipitation---
Heating Degree Days23 (Base 65)
Averaged from 23 records on October 25, 2013
WEATHER CONDITIONS BREAKOUT
WIND DIRECTION BREAKOUT
WEATHER BY HOUR - OCTOBER 25, 2013
[ °C ]   °F
Local TimeTemperatureDewpointHumidityBarometerVisibilityWind DirectionWind SpeedGust SpeedPrecipitationEventsConditions
1:53 AM34.0 °F28.9 °F82 %30.45 in10.0 miCalmClear
2:53 AM33.1 °F28.9 °F85 %30.46 in10.0 miCalmClear
3:53 AM33.1 °F28.9 °F85 %30.48 in10.0 miCalmClear
4:53 AM32.0 °F28.0 °F85 %30.49 in10.0 miCalmClear
5:53 AM32.0 °F27.0 °F82 %30.51 in10.0 miCalmClear
6:53 AM30.0 °F26.1 °F85 %30.53 in10.0 miCalmClear
7:53 AM33.1 °F28.0 °F82 %30.54 in10.0 miCalmClear
8:53 AM37.9 °F30.9 °F76 %30.55 in10.0 miCalmClear
9:53 AM43.0 °F33.1 °F68 %30.56 in10.0 miCalmClear
10:53 AM48.0 °F28.9 °F48 %30.54 in10.0 miNE (50°)6.9 mphClear
11:53 AM50.0 °F25.0 °F38 %30.53 in10.0 miNNE (20°)6.9 mphClear
12:53 PM51.1 °F27.0 °F39 %30.50 in10.0 miVariable4.6 mphClear
1:53 PM52.0 °F25.0 °F35 %30.47 in10.0 miCalmClear
2:53 PM54.0 °F25.0 °F33 %30.45 in10.0 miNE (40°)6.9 mphClear
3:53 PM54.0 °F24.1 °F31 %30.42 in10.0 miEast (80°)3.5 mphClear
4:53 PM53.1 °F23.0 °F31 %30.40 in10.0 miESE (110°)3.5 mphClear
5:53 PM50.0 °F27.0 °F41 %30.39 in8.0 miSouth (170°)4.6 mphClear
6:53 PM42.1 °F33.1 °F70 %30.38 in10.0 miCalmClear
7:53 PM42.1 °F32.0 °F67 %30.38 in10.0 miCalmClear
8:53 PM39.9 °F33.1 °F77 %30.36 in10.0 miCalmClear
9:53 PM39.0 °F33.1 °F79 %30.36 in9.0 miCalmClear
10:53 PM37.0 °F33.1 °F86 %30.34 in9.0 miCalmClear
11:53 PM37.0 °F33.1 °F86 %30.30 in10.0 miCalmClear
Hourly data recorded from KPOF, located miles away from Malden, Missouri







STORIES FROM OUR PARTNERS